Location: Helensbirgh
(56.0153°N, 4.7348°W)
Time: 07:45:45
(UTC+00:00)

Envisat - Pass Details

Date: 20 October 2019
Orbit: 764 x 766 km, 98.1° (Epoch: 18 November)

Event Time Altitude Azimuth Distance (km) Brightness Sun altitude
Rises 20:12:06 0° 196° (SSW) 3,225 6.3 -18.2°
Reaches altitude 10° 20:14:41 10° 208° (SSW) 2,303 5.7 -18.5°
Maximum altitude 20:19:04 29° 268° (W) 1,393 5.1 -19.1°
Drops below altitude 10° 20:23:29 10° 328° (NNW) 2,317 6.1 -19.7°
Sets 20:26:06 0° 339° (NNW) 3,248 6.7 -20.1°
